Location: Unspecified
(48.7670°N, 0.0000°E)
Time: 10:25:40
(UTC+00:00)

Altair - Pass Details

Date: 02 July 2019
Orbit: 1501 x 1683 km, 47.2° (Epoch: 17 July)

Event Time Altitude Azimuth Distance (km) Brightness Sun altitude
Rises 20:26:20 0° 274° (W) 4,706 11.0 -3.4°
Reaches altitude 10° 20:29:20 10° 273° (W) 3,744 10.4 -3.7°
Maximum altitude 20:38:52 81° 188° (S) 1,623 7.6 -4.9°
Drops below altitude 10° 20:48:48 10° 104° (ESE) 3,885 9.1 -6.1°
Sets 20:51:58 0° 103° (ESE) 4,891 9.6 -6.4°
